This demonstration page uses our WeatherBlox Daily Observations layout. Learn more.

Left ArrowRight Arrow

41.12389, -100.76542

Hourly Observations for July 18, 2015

Temp ( °F °C ) Dew Point ( °F °C ) Humidity (%) Winds ( mph kmh ) Pressure ( in mb ) Visibility ( mi km ) Precip ( " mm )
12:53 am 00:53 Clear 65 18.3 58 14.4 78 78 E 12 19 29.77 1008 10 16 0.00 0.00
1:53 am 01:53 Partly Cloudy 65 18.3 59 15 81 81 E 8 13 29.78 1009 10 16 0.00 0.00
2:53 am 02:53 Clear 62 16.7 59 15 90 90 ESE 12 19 29.75 1008 10 16 0.00 0.00
3:53 am 03:53 Clear 64 17.8 58 14.4 81 81 ESE 13 20 29.75 1007 10 16 0.00 0.00
4:53 am 04:53 Clear 63 17.2 59 15 87 87 ESE 8 13 29.80 1009 10 16 0.00 0.00
5:53 am 05:53 Clear 62 16.7 58 14.4 86 86 ENE 3 6 29.81 1009 10 16 0.00 0.00
6:53 am 06:53 Sunny 59 15 58 14.4 96 96 NW 6 9 29.85 1011 10 16 0.00 0.00
7:53 am 07:53 Sunny 65 18.3 60 15.6 84 84 Calm 29.86 1011 10 16 0.00 0.00
8:53 am 08:53 Sunny 70 21.1 60 15.6 71 71 W 8 13 29.88 1012 10 16 0.00 0.00
9:53 am 09:53 Sunny 73 22.8 61 16.1 66 66 W 7 11 29.89 1012 10 16 0.00 0.00
10:53 am 10:53 Sunny 76 24.4 63 17.2 64 64 WNW 6 9 29.89 1012 10 16 0.00 0.00
11:53 am 11:53 Sunny 80 26.7 65 18.3 60 60 WNW 9 15 29.89 1012 10 16 0.00 0.00
12:53 pm 12:53 Sunny 81 27.2 65 18.3 58 58 VRB 3 6 29.88 1012 10 16 0.00 0.00
1:53 pm 13:53 Sunny 87 30.6 65 18.3 48 48 N 6 9 29.88 1012 10 16 0.00 0.00
2:53 pm 14:53 Mostly Sunny 88 31.1 65 18.3 46 46 NE 12 19 29.88 1012 10 16 0.00 0.00
3:53 pm 15:53 Mostly Sunny 86 30 65 18.3 49 49 NNE 8 13 29.88 1012 10 16 0.00 0.00
4:53 pm 16:53 Sunny 88 31.1 64 17.8 45 45 E 8 13 29.88 1012 10 16 0.00 0.00
5:53 pm 17:53 Sunny 87 30.6 64 17.8 46 46 E 8 13 29.87 1012 10 16 0.00 0.00
6:53 pm 18:53 Sunny 86 30 64 17.8 48 48 ENE 9 15 29.87 1012 10 16 0.00 0.00
7:53 pm 19:53 Sunny 83 28.3 65 18.3 55 55 E 9 15 29.88 1012 10 16 0.00 0.00
8:53 pm 20:53 Sunny 75 23.9 65 18.3 71 71 NE 6 9 29.92 1013 10 16 0.00 0.00
9:25 pm 21:25 Clear with Nearby Thunderstorms 75 23.9 66 18.9 74 74 ENE 9 15 29.85 1011 10 16 0.00 0.00
9:53 pm 21:53 Mostly Cloudy 77 25 66 18.9 69 69 ENE 10 17 29.92 1013 10 16 0.00 0.00
10:33 pm 22:33 Cloudy with Nearby Thunderstorms 66 19 59 15 78 78 NNW 28 44 30.00 1016 10 16 0.00 0.00
10:46 pm 22:46 Windy with Storms Likely 66 18.9 59 15 78 78 NNW 22 35 29.97 1015 10 16 0.00 0.03
10:53 pm 22:53 Windy with Storms Likely 66 18.9 60 15.6 81 81 N 20 31 29.98 1015 10 16 0.00 0.03
11:01 pm 23:01 Cloudy with Light Rain 66 19 61 16 83 83 N 18 30 29.97 1015 10 16 0.00 0.00
11:10 pm 23:10 Cloudy with Thunderstorms 66 19 63 17 88 88 N 18 30 30.00 1016 10 16 0.00 0.00
11:25 pm 23:25 Cloudy with Rain 67 19.4 62 16.7 84 84 N 18 30 29.97 1015 10 16 0.01 0.25
11:53 pm 23:53 Cloudy with Nearby Thunderstorms 66 18.9 61 16.1 84 84 NE 15 24 29.99 1016 10 16 0.05 1.27

Powered by AerisWeather